Location: Unspecified
(0.0000°N, 0.0000°E)
Time: 11:40:17
(UTC+00:00)

ISS - Pass Details

Date: 19 August 2017
Orbit: 401 x 408 km, 51.6° (Epoch: 23 August)

Event Time Altitude Azimuth Distance (km) Brightness Sun altitude
Rises 18:51:06 0° 344° (NNW) 2,292 0.4 -11.6°
Reaches altitude 10° 18:53:26 10° 359° (N) 1,438 -0.9 -12.2°
Maximum altitude 18:56:04 23° 54° (NE) 898 -2.5 -12.8°
Enters shadow 18:56:51 21° 77° (ENE) 960 -2.5 -13.0°
